COSMOS 382 DEB, 37784

Orbit data source: Space-Track

COSMOS 382 DEB, 37784 is space debris in LEO originally from a launch on Wed, 02 Dec 1970 UTC launched from the Tyuratam Missile And Space Complex (TTMTR). Debris objects in space refer to the collection of defunct objects orbiting the Earth. Examples of debris include non-operational satellites, rocket bodies, and fragments generated from explosions, collisions, or faulty payload assembly.

Loading next visibility...
Identifier
37784, 1970-103H
Orbit
LEO
Country
Flag of CISCIS
Related business
Manufacturer
TsKBEM
Mission
Spacecraft
Bus & Motor
Unknown
Mass
Unknown
Launch date (UTC)
1970-12-02 (55 years ago)
Launch vehicle
Unknown
Launch site
Tyuratam Missile And Space Complex (TTMTR)
Object type
Payload
Rocket body
Debris
Shape & HBR
Unknown shape, 0.3 m
Radar Cross Section
Medium (>0.1 m² and <1 m²)

Expand to show TLE details & history
Last TLE update: 5 days ago

TLE from 5 days ago
0 COSMOS 382 DEB
1 37784U 70103H   25301.45740682  .00002845  00000-0  64193+0 0  9998
2 37784  55.8197 198.6131 1429534 200.5336 340.6794  8.44061649331879
Epoch: 2025-10-28T10:58Z
TLE epoch observation values (Epoch: 2025-10-28T10:58:39.949Z)
Latitude
4.327°
Longitude
173.96994°
Altitude
2,465.517 km
Speed
7.145 km/s
True Right ascension
01h 02m 43s
True Declination
4° 18' 22"
Sunlit
Object was in full shadow at epoch
Visualization orbit readout
Latitude
Unknown
Longitude
Unknown
Altitude
Unknown
Speed
Unknown
Apparent Right ascension
Unknown
Apparent Declination
Unknown
Sunlit
N/A
Visualization observer readout
Local Sidereal Time
08:51:10
Azimuth
Unknown
Elevation
Unknown
Doppler factor
Unknown
Orbital elements
Apogee altitude
5,267.846 km
Perigee altitude
2,354.634 km
Semi-major axis
10,189.377 km
Eccentricity
0.14295
Inclination
55.8197°
RAAN
198.6131°
Arg. of periapsis
200.5336°
True anomaly
334.18549°
Mean anomaly
340.6794°
Eccentric anomaly
337.55183°
Mean motion
2.11019 °/min
Orbital period
170.6 mins
BSTAR
0.64193
Loading maneuver chart data...
Computing Atmospheric mass density...
Loading historical data...
Loading historical data...
Loading historical data...
Loading historical data...
Loading historical data...
Loading historical data...
Loading historical data...

Documentation

Showing up to 5 results
|